Regional Weather Roundup
Issued by NWS

Home | Current Version | Previous Version | Graphics & Text | Print | Product List | Glossary On
Versions: 1 2 3 4 5 6 7 8 9 10 11 12 13 14 15 16 17 18 19 20 21 22 23 24 25 26 27 28 29 30 31 32 33 34 35 36 37 38 39 40 41 42 43 44 45 46 47 48 49 50
271
ASUS43 KMPX 252110
RWRMN
WEATHER ROUNDUP FOR MINNESOTA
NATIONAL WEATHER SERVICE TWIN CITIES/CHANHASSEN MN
400 PM CDT MON JUL 25 2016


NOTE: "FAIR" INDICATES FEW OR NO CLOUDS BELOW 12,000 FEET WITH NO
SIGNIFICANT WEATHER AND/OR OBSTRUCTIONS TO VISIBILITY. N/A MEANS
CURRENT SKY AND/OR WEATHER CONDITIONS ARE NOT AVAILABLE.

MNZ060>063-068>070-252200-
   Twin Cities Metro

CITY           SKY/WX    TMP DP  RH WIND       PRES   REMARKS
TWIN CITIES    MOSUNNY   86  61  42 NW7G20    30.04F
ST PAUL        MOSUNNY   85  61  44 W14       30.03F
CRYSTAL        SUNNY     85  59  41 W13       30.03F
BLAINE         MOSUNNY   88  61  40 W12G18    30.04F
LAKEVILLE      SUNNY     82  64  54 NW9       30.05F
EDEN PRAIRIE   SUNNY     87  63  44 W9        30.04F
LAKEVILLE      SUNNY     82  64  54 NW9       30.05F
SOUTH ST PAUL  MOSUNNY   85  58  39 NW10      30.03F
LAKE ELMO      FAIR      84  64  51 NW8       30.05F
$$
MNZ001>005-007-008-013>017-022>024-027-028-252200-
   Northwest Minnesota

CITY           SKY/WX    TMP DP  RH WIND       PRES   REMARKS
BEMIDJI        SUNNY     82  61  47 W12       30.01F
HALLOCK        SUNNY     82  64  54 SW7       29.95S
ROSEAU         SUNNY     82  66  57 W9        29.96F
WARROAD        SUNNY     81  64  57 SW7       29.96F
THIEF RVR FALL SUNNY     82  65  56 SW9       29.99F
CROOKSTON      SUNNY     84  63  48 S10       29.96F
FOSSTON        SUNNY     82  64  54 S10       30.00F
DETROIT LAKES  SUNNY     82  63  51 SW10      30.03F
MOORHEAD       SUNNY     88  59  37 S12       29.97F
PARK RAPIDS    SUNNY     86  60  41 W10       30.02F
MAHNOMEN       FAIR      84  65  52 S12       30.00F
$$
MNZ006-009>011-018-025>026-252200-
   North Central Minnesota

CITY           SKY/WX    TMP DP  RH WIND       PRES   REMARKS
BAUDETTE       SUNNY     82  59  45 W10       29.96F
FLAG ISLAND    SUNNY     79  55  44 NW10      29.94F
INTL FALLS     SUNNY     82  58  43 W9G18     29.96F
WASKISH        SUNNY     82  64  54 SW9       29.98F
BIG FORK       SUNNY     82  59  44 W6        30.00F
LONGVILLE      SUNNY     82  63  51 SW7       30.02S
GRAND RAPIDS   MOSUNNY   82  62  50 NW9       30.03S
CRANE LAKE     SUNNY     79  59  50 NW6       29.98F
ORR            SUNNY     82  55  39 W6        29.96F
COOK           SUNNY     81  61  50 W7        29.99F
WALKER         FAIR      82  61  48 W10G16    30.01F
$$
MNZ012-019>021-037-252200-
   Northeast Minnesota

CITY           SKY/WX    TMP DP  RH WIND       PRES   REMARKS
DULUTH         MOSUNNY   83  59  44 NW15G23   30.01S
ELY            MOSUNNY   79  55  44 W16G22    29.99F
HIBBING        MOSUNNY   80  57  45 W12G17    30.00F
EVELETH        SUNNY     81  55  41 W12       30.01F
DULUTH HARBOR  MOSUNNY   84  61  45 W7        29.98S
TWO HARBORS    SUNNY     84  64  51 W7        29.97S
SILVER BAY     MOSUNNY   84  59  42 W6        29.96S
GRAND MARAIS     N/A     85  48  27 NW7       29.92F
G MARAIS ARPRT MOSUNNY   75  55  50 W9G17     30.00S
$$
MNZ029>031-032-039>041-046>048-054>057-064-252200-
   West Central Minnesota

CITY           SKY/WX    TMP DP  RH WIND       PRES   REMARKS
FERGUS FALLS   SUNNY     84  66  54 S9        30.01F
WHEATON        SUNNY     90  66  45 S7        30.02F HX  92
MORRIS         SUNNY     88  64  45 S10       30.03F
ALEXANDRIA     SUNNY     84  63  49 W9        30.07F
ELBOW LAKE     FAIR      85  69  59 W10       30.03F
WADENA         SUNNY     81  64  57 SW5       30.04F
GLENWOOD       SUNNY     84  63  48 SW12      30.07S
APPLETON       SUNNY     88  61  40 S9        30.03F
BENSON         SUNNY     84  64  51 SW9       30.04F
ORTONVILLE     SUNNY     88  59  37 S8G16     30.03F
MADISON        SUNNY     86  63  45 SW9       30.04F
WILLMAR        FAIR      84  66  54 SW7       30.07F
$$
MNZ033>034-036-042>043-049>051-058-059-252200-
   Central Minnesota

CITY           SKY/WX    TMP DP  RH WIND       PRES   REMARKS
ST CLOUD       SUNNY     85  65  51 NW8       30.03F
SAUK CENTRE    FAIR      83  63  50 SW10      30.05F
PAYNESVILLE    SUNNY     82  62  50 W12       30.06F
AITKIN         SUNNY     84  57  39 W6        30.01F
PINE RIVER     SUNNY     82  63  51 SW7       30.05F
BRAINERD       SUNNY     84  61  45 W13       30.03F
STAPLES        SUNNY     84  59  42 W8        30.04S
LONG PRAIRIE   FAIR      82  61  47 SW7       30.05F
LITTLE FALLS   SUNNY     82  57  42 W10       30.04F
LITCHFIELD     SUNNY     84  61  45 W8        30.06F
BUFFALO        SUNNY     83  62  49 SW5       30.06S
MAPLE LAKE     SUNNY     85  66  53 SW5       30.06F
HUTCHINSON     SUNNY     83  67  58 W8        30.07F
$$
MNZ037-044-045-052-053-252200-
   East Central Minnesota

CITY           SKY/WX    TMP DP  RH WIND       PRES   REMARKS
PRINCETON      SUNNY     86  63  45 W6        30.04F
MORA           SUNNY     81  61  50 CALM      30.04F
CAMBRIDGE      SUNNY     86  66  51 NW7       30.02F
RUSH CITY      MOSUNNY   83  64  51 W6        30.03F
MOOSE LAKE     MOSUNNY   82  59  44 W7        30.00F
HINCKLEY       FAIR      82  63  51 W9        30.03S
CLOQUET        MOSUNNY   81  55  41 W8G21     30.01S
MCGREGOR       SUNNY     82  61  47 W9        30.02F
$$
MNZ071>073-080-081-089-090-097-098-252200-
   Southwest Minnesota

CITY           SKY/WX    TMP DP  RH WIND       PRES   REMARKS
MONTEVIDEO     SUNNY     88  64  45 W10       30.06F
GRANITE FALLS  SUNNY     87  66  49 S8        30.07F
CANBY          SUNNY     87  57  36 SW9G16    30.06F
MARSHALL       SUNNY     85  63  47 W12       30.06
REDWOOD FALLS  SUNNY     85  64  49 SW8       30.06F
OLIVIA         SUNNY     82  64  54 W7        30.06F
PIPESTONE      SUNNY     84  61  45 SW7       30.11F
WINDOM         SUNNY     84  63  48 SW5       30.09F
WORTHINGTON    SUNNY     83  63  50 MISG      30.10F
JACKSON        SUNNY     84  59  42 CALM      30.10F
TRACY          SUNNY     86  66  51 W5        30.08F
SLAYTON        SUNNY     85  59  42 SW8       30.11F
$$
MNZ065>067-074>077-082>085-091>093-252200-
   South Central Minnesota

CITY           SKY/WX    TMP DP  RH WIND       PRES   REMARKS
MANKATO        SUNNY     82  63  51 NW10      30.07F
NEW ULM        SUNNY     84  61  45 NW8       30.06F
ST JAMES       SUNNY     81  57  44 CALM      30.08F
FAIRMONT       SUNNY     84  63  48 NW8       30.07F
GLENCOE        MOSUNNY   84  67  56 W6        30.06F
FARIBAULT      SUNNY     82  64  54 W6        30.06F
OWATONNA       SUNNY     82  63  51 NW8       30.07F
WASECA         SUNNY     79  63  57 NW8       30.08F
ALBERT LEA     SUNNY     81  63  54 NW5       30.08S
$$
MNZ078>079-086>088-094>096-252200-
   Southeast Minnesota

CITY           SKY/WX    TMP DP  RH WIND       PRES   REMARKS
ROCHESTER      SUNNY     83  65  54 NW9       30.07F
RED WING       SUNNY     86  57  37 NW6       30.02F
STANTON        SUNNY     84  63  48 NW8       30.03F
DODGE CENTER   SUNNY     82  61  47 NW9       30.07F
WINONA         SUNNY     82  59  44 N8        30.03S
AUSTIN         SUNNY     81  63  54 N8G17     30.07S
PRESTON        SUNNY     80  60  49 NW9       30.07S
$$
ABBREVIATIONS USED IN REMARKS
   TC - TEMPERATURES IN CELSIUS
  WCI - WIND CHILL INDEX
   HX - HEAT INDEX
  VSB - VISIBILITY
$$




USA.gov is the U.S. government's official web portal to all federal, state and local government web resources and services.